Home   Weather   Ivalo   Past weeks

Flag for Finland Past Weather in Ivalo, Finland — Yesterday and Last 2 Weeks

Now
37 °F

Sunny.


Feels Like: 37 °F
Forecast: 19 / 40 °F
Wind: 2 mph from North

Location: Ivalo

Current Time: Apr 28, 2017 at 9:25:11 pm

Latest Report: Apr 28, 2017 at 8:50 pm


Visibility: 10 mi

Pressure: 30.36 "Hg

Humidity: 48%

Dew Point: 19 °F

Location of IvaloLocation

Past Weather in Ivalo — Graph

°F

Ivalo Temperature Yesterday

Maximum temperature yesterday: 34 °F (at 12:20 pm)
Minimum temperature yesterday: 27 °F (at 3:50 am)
Average temperature yesterday: 31 °F

High & Low Weather Summary for the Past Weeks

 TemperatureHumidityPressure
High41 °F (Apr 28, 2:50 pm)100% (Apr 20, 11:20 pm)30.33 "Hg (Apr 20, 11:20 pm)
Low3 °F (Apr 18, 5:20 am)36% (Apr 28, 2:50 pm)29.18 "Hg (Apr 21, 6:20 am)
Average28 °F71%29.82 "Hg
* Reported Apr 13 8:20 pm — Apr 28 8:20 pm, Ivalo, Weather by CustomWeather, © 2017

Note: Actual official high and low records may vary slightly from our data, if they occured in-between our weather recording intervals... More about our weather records

Advertising

Ivalo Weather History for the Previous 24 Hours

Scroll right to see more
 ConditionsComfort  
Time TempWeatherWind HumidityBarometerVisibility
8:20 pm
Fri, Apr 28
39 °FPassing clouds.5 mph48%30.33 "HgN/A
7:50 pm39 °FScattered clouds.5 mph42%30.33 "HgN/A
7:20 pm39 °FPassing clouds.7 mph45%30.33 "HgN/A
6:50 pm39 °FSunny.2 mph39%30.33 "Hg10 mi
6:20 pm39 °FPassing clouds.2 mph42%30.30 "HgN/A
5:50 pm39 °FPassing clouds.3 mph42%30.30 "HgN/A
5:20 pm39 °FPassing clouds.2 mph42%30.30 "HgN/A
4:50 pm39 °FSunny.3 mph42%30.30 "Hg10 mi
4:20 pm39 °FPassing clouds.5 mph42%30.30 "HgN/A
3:50 pm39 °FPassing clouds.6 mph42%30.30 "HgN/A
3:20 pm39 °FSunny.5 mph39%30.27 "Hg10 mi
2:50 pm41 °FSunny.3 mph36%30.27 "Hg10 mi
2:20 pm37 °FSunny.3 mph45%30.27 "Hg10 mi
1:50 pm39 °FPassing clouds.5 mph42%30.27 "HgN/A
1:20 pm37 °FSunny.3 mph45%30.24 "Hg10 mi
12:50 pm39 °FPassing clouds.1 mph39%30.24 "HgN/A
12:20 pm37 °FPassing clouds.6 mph41%30.24 "HgN/A
11:50 am39 °FPartly sunny.3 mph42%30.24 "HgN/A
11:20 am36 °FPartly sunny.7 mph52%30.21 "HgN/A
10:50 am34 °FPartly sunny.6 mph51%30.21 "HgN/A
10:20 am36 °FPartly sunny.3 mph56%30.21 "HgN/A
9:50 am36 °FSunny.2 mph56%30.21 "Hg10 mi
9:20 am34 °FSunny.2 mph60%30.18 "Hg10 mi
8:50 am28 °FSunny.3 mph74%30.18 "Hg10 mi
8:20 am30 °FSunny.2 mph69%30.18 "Hg10 mi
7:50 am27 °FSunny.3 mph74%30.15 "Hg10 mi
7:20 am23 °FSunny.2 mph80%30.15 "Hg10 mi
6:50 am21 °FSunny.1 mph86%30.12 "Hg10 mi
6:20 am21 °FSunny.2 mph86%30.12 "Hg10 mi
5:50 am19 °FSunny.3 mph93%30.09 "Hg10 mi
5:20 am18 °FSunny.2 mph93%30.09 "Hg10 mi
4:50 am19 °FSunny.2 mph86%30.09 "Hg10 mi
4:20 am23 °FSunny.1 mph93%30.07 "Hg10 mi
3:50 am21 °FClear.2 mph86%30.07 "Hg10 mi
3:20 am25 °FClear.3 mph86%30.04 "Hg10 mi
2:50 am27 °FPassing clouds.6 mph80%30.04 "HgN/A
2:20 am27 °FClear.3 mph80%30.04 "Hg10 mi
1:50 am27 °FClear.3 mph80%30.01 "Hg10 mi
1:20 am27 °FPassing clouds.5 mph80%30.01 "HgN/A
12:50 am27 °FPassing clouds.7 mph80%30.01 "HgN/A
12:20 am28 °FPassing clouds.8 mph74%29.98 "HgN/A
11:50 pm
Thu, Apr 27
28 °FClear.9 mph74%29.98 "Hg10 mi
11:20 pm30 °FClear.10 mph75%29.98 "Hg10 mi
10:50 pm30 °FClear.12 mph75%29.95 "Hg10 mi
10:20 pm30 °FClear.12 mph75%29.95 "Hg10 mi
9:50 pm32 °FSunny.10 mph64%29.92 "Hg10 mi
9:20 pm32 °FOvercast.10 mph69%29.92 "HgN/A
Weather by CustomWeather, © 2017

See weather overviewHow to use our weather pages